Tracking 18673 objects as of 28-June-2017
HD Live streaming from Space Station
objects crossing your sky now

MERIDIAN 3

Track MERIDIAN 3 now!
MERIDIAN 3 is classified as:


NORAD ID: 37212
Int'l Code: 2010-058A
Perigee: 1,736.9 km
Apogee: 38,633.2 km
Inclination: 63.2 °
Period: 717.8 minutes
Semi major axis: 26556 km
RCS: 24.3984 m2 (large)
Launch date: November 2, 2010
Source: Commonwealth of Independent States (former USSR) (CIS)
Launch site: PLESETSK MISSILE AND SPACE COMPLEX (PKMTR)

MERIDIAN 3 is a Russian military communications satellite.
Your satellite tracking list
Your tracking list is empty





NASA's NSSDC Master Catalog

Two Line Element Set (TLE):
1 37212U 10058A   17178.75491674 +.00000027 +00000-0 +10000-3 0  9999
2 37212 063.2007 073.2508 6946871 274.1867 016.3566 02.00612231048732
Source of the keplerian elements: AFSPC